Flag for Nepal Weather past 2 weeks in Kathmandu, Nepal

Now
79 °F

Broken clouds.


Feels Like: 81 °F
Forecast: 66 / 86 °F
Wind: 5 mph from Southwest

Location: Kathmandu Airport

Current Time: Jul 25, 2014 at 3:15:16 PM

Latest Report: Jul 25, 2014 at 2:35 PM


Visibility: N/A

Pressure: 29.83 "Hg

Humidity: 65%

Dew point: 66 °F

Location of KathmanduLocation

Historic Weather in Kathmandu — Graph

°F

Kathmandu temperature yesterday

Maximum temperature yesterday: 75 °F (at 12:35 PM)
Minimum temperature yesterday: 68 °F (at 4:35 AM)
Average temperature yesterday: 71 °F

Past Weeks' High & Low Weather Summary

 TemperatureHumidityPressure
High86 °F (Jul 12, 1:35 PM)100% (Jul 11, 7:35 AM)29.92 "Hg (Jul 11, 7:35 AM)
Low68 °F (Jul 11, 6:35 AM)50% (Jul 21, 12:35 AM)29.62 "Hg (Jul 19, 4:35 PM)
Average75 °F79%29.78 "Hg
* Reported Jul 10 1:35 PM — Jul 25 1:35 PM, Kathmandu, Weather by CustomWeather, © 2014

Note: Actual official high and low records may vary slightly from our data, if they occured in-between our weather recording intervals... More about our weather records

Advertising

Kathmandu weather history for previous 24 hours

 ConditionsComfort  
Time TempWeatherWind HumidityBarometerVisibility
1:35 PM
Jul 25
79 °FBroken clouds.No wind65%29.86 "HgN/A
12:35 PM79 °FBroken clouds.No wind65%29.89 "HgN/A
11:35 AM77 °FBroken clouds.No wind69%29.89 "HgN/A
10:35 AM75 °FBroken clouds.No wind74%29.92 "Hg5 mi
9:35 AM75 °FBroken clouds.No wind78%29.92 "Hg5 mi
8:35 AM72 °FBroken clouds.No wind83%29.89 "Hg5 mi
7:35 AM70 °FMore clouds than sun.No wind88%29.89 "Hg4 mi
6:35 AM70 °FSprinkles. More clouds than sun.No wind88%29.86 "Hg4 mi
5:35 AM68 °FSprinkles. Mostly cloudy.No wind94%29.86 "Hg4 mi
4:35 AM68 °FRain. Mostly cloudy.No wind94%29.83 "Hg2 mi
3:35 AM68 °FRain. Mostly cloudy.No wind94%29.83 "Hg2 mi
2:35 AM70 °FRain. Mostly cloudy.No wind94%29.86 "Hg2 mi
1:35 AM70 °FRain. Mostly cloudy.No wind94%29.86 "Hg2 mi
12:35 AM70 °FRain. Mostly cloudy.No wind94%29.89 "Hg4 mi
10:35 PM
Jul 24
70 °FRain. Mostly cloudy.No wind94%29.89 "Hg4 mi
9:35 PM72 °FPartly cloudy.No wind88%29.89 "Hg4 mi
8:35 PM72 °FLight rain. Mostly cloudy.No wind88%29.86 "Hg4 mi
7:35 PM73 °FRain. Broken clouds.No wind78%29.83 "Hg4 mi
6:35 PM73 °FBroken clouds.3 mph83%29.80 "Hg5 mi
Weather by CustomWeather, © 2014

See weather overviewHow to use our weather pages